Showing default

IONOSFERA-M 01, 61735

Orbit data source: Space-Track

IONOSFERA-M 01, 61735 is a payload satellite owned by VNIIEM (CIS) in SSO that was launched on Mon, 04 Nov 2024 UTC via a SOYUZ-2-1B launch vehicle from the Vostochny Cosmodrome (VOSTO). Payload-class satellites include a variety of spacecraft equipped with specific instruments for various scientific and technological missions. These include communications satellites like Starlink; space stations such as the ISS; scientific satellites like the Hubble; Earth observation satellites from companies like Planet Labs, Umbra, and HawkEye 360; GPS; miniature CubeSats for education and research; and military/defense satellites.

Loading next visibility...
Identifier
61735, 2024-199A
Orbit
SSO
Country
Flag of CISCIS
Related business
Manufacturer
VNIIEM
Mission
Operational Civil Science
Bus & Motor
IONOSFERA-M, Unknown motor
Mass
430 kg wet, 430 kg dry
Launch date (UTC)
2024-11-04 (2 years ago)
Launch vehicle
SOYUZ-2-1B
Launch site
Vostochny Cosmodrome (VOSTO)
Object type
Payload
Rocket body
Debris
Shape & HBR
Box + 1 Ant, 5.0 m
Radar Cross Section
2.359 m², Large (>1 m²)

Expand to show TLE details & history
Last TLE update: 5 hours ago

TLE from 5 hours ago
0 IONOSFERA-M 01
1 61735U 24199A   26127.89692338  .00000036  00000-0  35783-4 0  9992
2 61735  98.7225   1.4840 0000188 134.5192 225.6001 14.22746750121970
Epoch: 2026-05-07T21:31Z
TLE epoch observation values (Epoch: 2026-05-07T21:31:34.180Z)
Latitude
-0.00003°
Longitude
172.85511°
Altitude
819.091 km
Speed
7.444 km/s
True Right ascension
00h 05m 56s
True Declination
0° 00' 00"
Sunlit
Object was in daylight at epoch
Visualization orbit readout
Latitude
Unknown
Longitude
Unknown
Altitude
Unknown
Speed
Unknown
Apparent Right ascension
Unknown
Apparent Declination
Unknown
Sunlit
N/A
Visualization observer readout
Local Sidereal Time
10:21:05
Azimuth
Unknown
Elevation
Unknown
Doppler factor
Unknown
Orbital elements
Apogee altitude
813.369 km
Perigee altitude
813.099 km
Semi-major axis
7,191.371 km
Eccentricity
0.00002
Inclination
98.7225°
RAAN
1.484°
Arg. of periapsis
134.5192°
True anomaly
225.59856°
Mean anomaly
225.6001°
Eccentric anomaly
225.59933°
Mean motion
3.55898 °/min
Orbital period
101.15 mins
BSTAR
0.000035783
Loading maneuver chart data...
Computing Atmospheric mass density...
Loading historical data...
Loading historical data...
Loading historical data...
Loading historical data...
Loading historical data...
Loading historical data...
Loading historical data...

Documentation

Showing up to 5 results
|